Lid_Strength_Index
8 11 13 12 11 10 11 12 12 10 9 10 11 11 9 8 10 10 9 9 8 8 7 6 5 3 3 3 3 3 3 3 4 4 7 6 4 2 1 1 0 1 1 1
11 12 9 9 9 9 10 12 12 10 9 11 12 12 10 10 10 8 8 8 8 8 7 5 3 3 3 3 3 3 2 2 2 1 2 2 2 2 1 1 1 0 0 0
13 10 8 9 10 10 11 12 12 12 10 10 12 13 12 9 9 9 9 8 8 7 7 5 4 4 4 4 4 3 3 3 2 1 2 3 3 3 3 2 1 1 0 0
12 9 9 10 10 10 13 10 10 10 13 15 12 17 13 11 10 9 8 9 8 8 8 6 5 6 5 5 4 4 4 3 2 3 3 4 4 4 3 2 1 1 0 0
12 11 11 11 10 9 11 9 10 11 13 14 14 16 14 12 11 10 9 9 8 8 8 7 5 5 5 5 5 5 2 3 4 3 3 3 4 3 3 3 2 2 2 2
10 8 9 10 9 9 9 11 12 14 15 18 15 15 15 13 12 10 9 8 9 8 9 7 7 6 6 7 5 3 4 5 4 3 3 4 4 5 5 4 4 3 3 2
10 10 9 8 11 9 11 15 18 18 18 18 14 15 14 11 9 9 9 9 9 9 9 8 8 8 8 7 7 6 6 5 5 3 4 4 4 5 5 4 4 3 3 3
13 14 9 8 10 12 12 14 18 20 20 17 13 16 13 9 8 8 9 9 9 9 9 8 8 8 8 8 8 7 7 7 6 6 5 5 5 5 4 4 3 3 3 3
15 13 8 8 8 9 12 14 13 16 16 18 16 13 11 9 8 8 8 9 10 10 10 9 9 9 9 9 9 9 7 7 7 7 7 6 5 5 3 3 3 3 3 2
12 14 9 8 7 8 10 9 16 16 21 22 18 16 15 12 10 9 9 9 9 9 10 10 9 9 9 10 9 9 8 8 7 7 7 5 4 3 3 5 4 3 2 2
11 13 13 10 11 12 12 13 13 14 16 20 20 17 11 10 10 10 10 10 10 10 10 9 9 8 8 8 8 8 8 8 8 8 7 6 6 5 4 4 3 2 3 2
10 13 16 14 10 9 11 13 13 17 18 18 19 17 9 10 11 10 11 10 10 10 10 9 9 8 8 9 9 9 8 8 8 8 8 8 8 7 7 5 3 3 3 3
10 13 17 16 13 10 13 12 12 13 14 17 19 17 9 9 11 11 11 10 9 10 10 9 9 9 9 9 8 8 8 8 8 8 8 8 8 8 8 6 6 5 4 3
9 13 14 17 15 13 15 12 12 14 17 16 16 15 11 10 11 11 11 11 10 10 10 10 10 10 9 9 9 8 8 8 8 8 8 9 9 8 8 8 7 6 5 4
11 14 14 13 12 12 13 13 12 14 14 17 14 14 11 11 11 11 11 10 10 10 10 10 10 10 10 10 9 8 7 7 8 8 8 8 7 7 8 8 8 8 7 6
11 15 14 15 12 12 13 11 11 11 12 13 13 13 10 9 10 11 11 10 11 10 9 9 9 9 8 9 8 8 8 9 9 9 8 8 8 9 9 9 9 9 8 7
13 14 15 17 13 13 16 13 12 12 11 11 14 12 10 11 10 11 11 10 10 10 9 9 9 9 9 9 9 10 10 10 9 10 11 11 11 11 10 9 9 9 8 8
13 14 15 16 15 20 14 9 9 11 10 10 11 10 10 11 10 9 9 11 10 9 9 10 9 9 9 10 10 10 10 11 12 12 12 11 11 11 11 10 10 9 10 9
11 14 15 17 17 15 13 11 12 12 13 9 10 9 10 10 10 11 9 9 10 10 10 10 9 10 11 10 11 12 12 13 13 13 12 12 11 11 11 11 11 10 9 8
10 11 15 15 18 20 13 9 7 8 16 9 10 11 11 12 15 13 10 10 11 10 11 11 11 11 11 12 12 13 14 13 13 13 12 12 11 11 11 11 10 9 8 8
14 13 15 16 17 15 10 8 7 16 15 10 11 12 12 13 12 11 11 10 10 10 11 11 11 13 13 13 13 14 14 14 13 12 11 11 11 10 9 9 9 8 8 8
14 15 16 15 17 18 8 9 14 11 10 10 11 11 12 12 12 11 11 10 10 10 11 12 14 14 14 13 14 14 15 13 12 12 12 10 9 9 8 9 8 8 8 8
15 12 14 13 14 9 7 9 7 8 10 10 12 11 11 11 12 11 11 11 12 14 15 15 15 15 14 14 14 15 13 12 12 12 10 9 9 9 9 8 8 7 7 7
11 8 12 11 10 9 7 6 7 9 11 11 11 10 11 12 10 11 12 14 15 15 16 15 15 16 16 15 14 13 13 12 12 12 10 9 9 9 8 7 7 6 7 7
10 9 11 10 9 8 7 8 9 10 9 10 10 11 11 11 12 13 15 15 16 16 15 16 16 16 15 14 14 13 13 12 12 11 10 9 9 9 7 7 7 7 7 6
10 11 12 13 9 9 10 10 9 10 10 11 12 11 11 12 14 15 16 16 16 16 16 16 16 16 15 14 14 13 12 12 11 10 9 9 9 8 8 7 7 7 7 7